Hourly Data Report for May 10, 2012

All times are specified in Local Standard Time (LST). Add 1 hour to adjust for Daylight Saving Time where and when it is observed.

HAMILTON A
ONTARIO

43°10'25.000" N
79°56'06.000" W
237.70 m
6153193
71263
YHM

Download Data

Hourly Data (May 2012)
Hourly Data Report for May 10, 2012
Temp Definition
°C
Dew Point Temp Definition
°C
Rel Hum Definition
%
Wind Dir Definition
10's deg

Wind Spd Definition
km/h
Visibility Definition
km
Stn Press Definition
kPa
Hmdx Definition


Wind Chill Definition


Weather Definition


TIME
00:00 Legend Double Dagger 8.5 6.0 84 30 13 10.0 97.95     LegendNANA
01:00 Legend Double Dagger 7.4 5.6 88 30 11 10.0 97.94     Mainly Clear
02:00 Legend Double Dagger 7.2 5.5 89 31 14 10.0 97.92     LegendNANA
03:00 Legend Double Dagger 7.2 5.4 88 30 9 10.0 97.93     LegendNANA
04:00 Legend Double Dagger 7.5 5.7 88 30 8 10.0 97.92     Mostly Cloudy
05:00 Legend Double Dagger 7.7 5.5 86 31 10 10.0 97.96     LegendNANA
06:00 Legend Double Dagger 7.5 5.8 89 27 7 10.0 98.00     LegendNANA
07:00 Legend Double Dagger 8.4 5.5 82 27 9 10.0 98.04     Cloudy
08:00 Legend Double Dagger 9.4 5.0 74 32 8 10.0 98.09     LegendNANA
09:00 Legend Double Dagger 10.5 4.7 67 28 15 10.0 98.09     LegendNANA
10:00 Legend Double Dagger 12.5 4.0 56 32 21 10.0 98.10     Mostly Cloudy
11:00 Legend Double Dagger 13.9 3.1 48 29 25 10.0 98.09     LegendNANA
12:00 Legend Double Dagger 13.2 1.9 46 30 29 10.0 98.09     LegendNANA
13:00 Legend Double Dagger 14.7 2.3 43 32 27 10.0 98.07     Mostly Cloudy
14:00 Legend Double Dagger 15.7 1.9 39 30 27 10.0 98.07     LegendNANA
15:00 Legend Double Dagger 16.1 1.9 38 29 25 10.0 98.07     LegendNANA
16:00 Legend Double Dagger 15.6 -0.5 33 32 33 10.0 98.11     Mainly Clear
17:00 Legend Double Dagger 14.8 -0.1 36 32 23 10.0 98.19     LegendNANA
18:00 Legend Double Dagger 13.8 -0.6 37 32 29 10.0 98.26     LegendNANA
19:00 Legend Double Dagger 12.2 -0.3 42 31 14 10.0 98.34     Mainly Clear
20:00 Legend Double Dagger 10.6 -1.1 44 30 15 10.0 98.40     LegendNANA
21:00 Legend Double Dagger 9.7 -1.0 47 29 13 10.0 98.49     LegendNANA
22:00 Legend Double Dagger 8.6 -0.4 53 28 14 10.0 98.53     Mainly Clear
23:00 Legend Double Dagger 7.9 -0.1 57 29 15 10.0 98.54     LegendNANA

Notes on Data Quality.

Legend

  • E = Estimated
  • M = Missing
  • NA = Not Available
  • ‡ = Partner data that is not subject to review by the National Climate Archives
Date modified: